| time (UTC) | temp F | wind direction | speed MPH | gust MPH | rain 1hr in | rain 24hr in | rain mn in | humidity % | barometer mb |
| 20260905154321 | 88 | 187 | 1.0 | 2.0 | 0.00 | 0.00 | 0.00 | 85 | 1012.7 |
| 20260905153816 | 89 | 209 | 3.0 | 5.0 | 0.00 | 0.00 | 0.00 | 82 | 1012.6 |
| 20260905153313 | 91 | 210 | 1.0 | 2.0 | 0.00 | 0.00 | 0.00 | 79 | 1012.8 |
| 20260905152812 | 90 | 179 | 0.0 | 1.0 | 0.00 | 0.00 | 0.00 | 82 | 1012.7 |
| 20260905152311 | 88 | 178 | 0.0 | 0.0 | 0.00 | 0.00 | 0.00 | 83 | 1012.7 |
| 20260905151806 | 87 | 243 | 3.0 | 3.0 | 0.00 | 0.00 | 0.00 | 84 | 1012.6 |
| 20260905151302 | 87 | 187 | 0.0 | 3.0 | 0.00 | 0.00 | 0.00 | 86 | 1012.9 |
| 20260905150802 | 88 | 194 | 2.0 | 3.0 | 0.00 | 0.00 | 0.00 | 85 | 1012.8 |
| 20260905150302 | 87 | 181 | 0.0 | 2.0 | 0.00 | 0.00 | 0.00 | 89 | 1012.9 |
| 20260905145759 | 87 | 193 | 0.0 | 1.0 | 0.00 | 0.00 | 0.00 | 88 | 1012.7 |
| 20260905145253 | 87 | 185 | 0.0 | 1.0 | 0.00 | 0.00 | 0.00 | 90 | 1012.6 |
| 20260905144752 | 87 | 200 | 2.0 | 2.0 | 0.00 | 0.00 | 0.00 | 89 | 1012.8 |
| 20260905144248 | 87 | 184 | 0.0 | 2.0 | 0.00 | 0.00 | 0.00 | 91 | 1012.8 |
| 20260905143746 | 86 | 191 | 0.0 | 1.0 | 0.00 | 0.00 | 0.00 | 91 | 1012.8 |
| 20260905143241 | 86 | 186 | 0.0 | 0.0 | 0.00 | 0.00 | 0.00 | 92 | 1012.8 |
| 20260905142739 | 85 | 200 | 0.0 | 2.0 | 0.00 | 0.00 | 0.00 | 94 | 1012.8 |
| 20260905142234 | 86 | 189 | 1.0 | 2.0 | 0.00 | 0.00 | 0.00 | 93 | 1012.8 |
| 20260905141730 | 87 | 183 | 0.0 | 0.0 | 0.00 | 0.00 | 0.00 | 91 | 1012.7 |
| 20260905141226 | 86 | 183 | 0.0 | 0.0 | 0.00 | 0.00 | 0.00 | 93 | 1012.6 |
| 20260905140721 | 86 | 183 | 0.0 | 0.0 | 0.00 | 0.00 | 0.00 | 93 | 1012.7 |
| 20260905140215 | 86 | 183 | 0.0 | 0.0 | 0.00 | 0.00 | 0.00 | 93 | 1012.5 |
| 20260905135709 | 85 | 180 | 0.0 | 0.0 | 0.00 | 0.00 | 0.00 | 94 | 1012.4 |
| 20260905135206 | 84 | 170 | 0.0 | 0.0 | 0.00 | 0.00 | 0.00 | 97 | 1012.6 |
| 20260905134704 | 83 | 151 | 0.0 | 1.0 | 0.00 | 0.00 | 0.00 | 99 | 1012.4 |
| 20260905134204 | 82 | 171 | 0.0 | 0.0 | 0.00 | 0.00 | 0.00 | 99 | 1012.6 |
| 20260905133659 | 82 | 169 | 0.0 | 1.0 | 0.00 | 0.00 | 0.00 | 99 | 1012.5 |
| 20260905133154 | 81 | 170 | 0.0 | 0.0 | 0.00 | 0.00 | 0.00 | 99 | 1012.6 |
| 20260905132653 | 80 | 157 | 0.0 | 0.0 | 0.00 | 0.00 | 0.00 | 99 | 1012.6 |
| 20260905132148 | 80 | 171 | 0.0 | 0.0 | 0.00 | 0.00 | 0.00 | 99 | 1012.7 |
| 20260905131644 | 80 | 162 | 0.0 | 0.0 | 0.00 | 0.00 | 0.00 | 99 | 1012.6 |
| 20260905131138 | 80 | 171 | 0.0 | 0.0 | 0.00 | 0.00 | 0.00 | 99 | 1012.5 |
| 20260905130632 | 80 | 171 | 0.0 | 0.0 | 0.00 | 0.00 | 0.00 | 99 | 1012.7 |
| 20260905130126 | 79 | 171 | 0.0 | 0.0 | 0.00 | 0.00 | 0.00 | 99 | 1012.4 |
| 20260905125621 | 79 | 171 | 0.0 | 0.0 | 0.00 | 0.00 | 0.00 | 99 | 1012.4 |
| 20260905125117 | 78 | 171 | 0.0 | 0.0 | 0.00 | 0.00 | 0.00 | 99 | 1012.4 |
| 20260905124613 | 77 | 191 | 0.0 | 0.0 | 0.00 | 0.00 | 0.00 | 99 | 1012.4 |
| 20260905124108 | 76 | 192 | 0.0 | 0.0 | 0.00 | 0.00 | 0.00 | 99 | 1012.2 |
| 20260905123558 | 76 | 192 | 0.0 | 0.0 | 0.00 | 0.00 | 0.00 | 99 | 1012.2 |
| 20260905123055 | 76 | 192 | 0.0 | 0.0 | 0.00 | 0.00 | 0.00 | 99 | 1012.0 |
| 20260905122555 | 76 | 192 | 0.0 | 0.0 | 0.00 | 0.00 | 0.00 | 99 | 1012.3 |
| 20260905122055 | 76 | 191 | 0.0 | 0.0 | 0.00 | 0.00 | 0.00 | 99 | 1012.0 |
| 20260905121550 | 76 | 191 | 0.0 | 0.0 | 0.00 | 0.00 | 0.00 | 99 | 1012.2 |
| 20260905121045 | 75 | 193 | 0.0 | 0.0 | 0.00 | 0.00 | 0.00 | 99 | 1011.9 |
| 20260905120544 | 75 | 194 | 0.0 | 0.0 | 0.00 | 0.00 | 0.00 | 99 | 1012.0 |
| 20260905120040 | 76 | 194 | 0.0 | 0.0 | 0.00 | 0.00 | 0.00 | 99 | 1011.9 |
| 20260905115538 | 75 | 194 | 0.0 | 0.0 | 0.00 | 0.00 | 0.00 | 99 | 1011.8 |
| 20260905115033 | 75 | 194 | 0.0 | 0.0 | 0.00 | 0.00 | 0.00 | 99 | 1011.7 |
| 20260905114532 | 75 | 194 | 0.0 | 0.0 | 0.00 | 0.00 | 0.00 | 99 | 1011.6 |
| 20260905114032 | 75 | 194 | 0.0 | 0.0 | 0.00 | 0.00 | 0.00 | 99 | 1011.8 |
| 20260905113527 | 75 | 194 | 0.0 | 0.0 | 0.00 | 0.00 | 0.00 | 99 | 1011.6 |
| 20260905113022 | 75 | 194 | 0.0 | 0.0 | 0.00 | 0.00 | 0.00 | 99 | 1011.3 |
| 20260905112518 | 75 | 194 | 0.0 | 0.0 | 0.00 | 0.00 | 0.00 | 99 | 1011.4 |
| 20260905112013 | 75 | 194 | 0.0 | 0.0 | 0.00 | 0.00 | 0.00 | 99 | 1011.4 |
| 20260905111513 | 76 | 194 | 0.0 | 0.0 | 0.00 | 0.00 | 0.00 | 99 | 1011.7 |
| 20260905111007 | 76 | 194 | 0.0 | 0.0 | 0.00 | 0.00 | 0.00 | 99 | 1011.5 |
| 20260905110506 | 76 | 194 | 0.0 | 0.0 | 0.00 | 0.00 | 0.00 | 99 | 1011.3 |
| 20260905110001 | 76 | 194 | 0.0 | 0.0 | 0.00 | 0.00 | 0.00 | 99 | 1011.3 |
| 20260905105455 | 75 | 194 | 0.0 | 0.0 | 0.00 | 0.00 | 0.00 | 99 | 1011.3 |
| 20260905104955 | 76 | 194 | 0.0 | 0.0 | 0.00 | 0.00 | 0.00 | 99 | 1011.2 |
| 20260905104451 | 76 | 192 | 0.0 | 0.0 | 0.00 | 0.00 | 0.00 | 99 | 1011.2 |
| 20260905103945 | 76 | 192 | 0.0 | 0.0 | 0.00 | 0.00 | 0.00 | 99 | 1011.2 |
| 20260905103440 | 76 | 192 | 0.0 | 0.0 | 0.00 | 0.00 | 0.00 | 99 | 1011.1 |
| 20260905102937 | 76 | 192 | 0.0 | 0.0 | 0.00 | 0.00 | 0.00 | 99 | 1011.1 |
| 20260905102432 | 76 | 192 | 0.0 | 0.0 | 0.00 | 0.00 | 0.00 | 99 | 1011.3 |
| 20260905101927 | 76 | 192 | 0.0 | 0.0 | 0.00 | 0.00 | 0.00 | 99 | 1011.4 |
| 20260905101426 | 76 | 192 | 0.0 | 0.0 | 0.00 | 0.00 | 0.00 | 99 | 1011.3 |
| 20260905100921 | 76 | 192 | 0.0 | 0.0 | 0.00 | 0.00 | 0.00 | 99 | 1011.2 |
| 20260905100416 | 76 | 191 | 0.0 | 0.0 | 0.00 | 0.00 | 0.00 | 99 | 1011.2 |
| 20260905095916 | 76 | 194 | 0.0 | 0.0 | 0.00 | 0.00 | 0.00 | 99 | 1011.2 |
| 20260905095411 | 76 | 194 | 0.0 | 0.0 | 0.00 | 0.00 | 0.00 | 99 | 1011.3 |
| 20260905094911 | 76 | 194 | 0.0 | 0.0 | 0.00 | 0.00 | 0.00 | 99 | 1011.2 |
| 20260905094407 | 76 | 194 | 0.0 | 0.0 | 0.00 | 0.00 | 0.00 | 99 | 1011.2 |
| 20260905093905 | 76 | 194 | 0.0 | 0.0 | 0.00 | 0.00 | 0.00 | 99 | 1011.3 |
| 20260905093401 | 76 | 194 | 0.0 | 0.0 | 0.00 | 0.00 | 0.00 | 99 | 1011.1 |
| 20260905092856 | 76 | 194 | 0.0 | 0.0 | 0.00 | 0.00 | 0.00 | 99 | 1011.1 |
| 20260905092351 | 76 | 194 | 0.0 | 0.0 | 0.00 | 0.00 | 0.00 | 99 | 1011.5 |
| 20260905091846 | 76 | 194 | 0.0 | 0.0 | 0.00 | 0.00 | 0.00 | 99 | 1011.1 |
| 20260905091346 | 76 | 194 | 0.0 | 0.0 | 0.00 | 0.00 | 0.00 | 99 | 1011.4 |
| 20260905090845 | 76 | 194 | 0.0 | 0.0 | 0.00 | 0.00 | 0.00 | 99 | 1011.2 |
| 20260905090341 | 77 | 194 | 0.0 | 0.0 | 0.00 | 0.00 | 0.00 | 99 | 1011.1 |
| 20260905085840 | 76 | 194 | 0.0 | 0.0 | 0.00 | 0.00 | 0.00 | 99 | 1011.3 |
| 20260905085340 | 76 | 194 | 0.0 | 0.0 | 0.00 | 0.00 | 0.00 | 99 | 1011.3 |
| 20260905084836 | 76 | 194 | 0.0 | 0.0 | 0.00 | 0.00 | 0.00 | 99 | 1011.0 |
| 20260905084334 | 77 | 194 | 0.0 | 0.0 | 0.00 | 0.00 | 0.00 | 99 | 1011.0 |
| 20260905083829 | 77 | 194 | 0.0 | 0.0 | 0.00 | 0.00 | 0.00 | 99 | 1010.9 |
| 20260905083326 | 76 | 194 | 0.0 | 0.0 | 0.00 | 0.00 | 0.00 | 99 | 1011.0 |
| 20260905082820 | 77 | 194 | 0.0 | 0.0 | 0.00 | 0.00 | 0.00 | 99 | 1011.0 |
| 20260905082317 | 77 | 194 | 0.0 | 0.0 | 0.00 | 0.00 | 0.00 | 99 | 1011.2 |
| 20260905081812 | 77 | 194 | 0.0 | 0.0 | 0.00 | 0.00 | 0.00 | 99 | 1011.2 |
| 20260905081307 | 77 | 194 | 0.0 | 0.0 | 0.00 | 0.00 | 0.00 | 99 | 1011.4 |
| 20260905080805 | 77 | 194 | 0.0 | 0.0 | 0.00 | 0.00 | 0.00 | 99 | 1011.4 |
| 20260905080300 | 77 | 194 | 0.0 | 0.0 | 0.00 | 0.00 | 0.00 | 99 | 1011.2 |
| 20260905075759 | 77 | 194 | 0.0 | 0.0 | 0.00 | 0.00 | 0.00 | 99 | 1011.2 |
| 20260905075259 | 77 | 194 | 0.0 | 0.0 | 0.00 | 0.00 | 0.00 | 99 | 1011.4 |
| 20260905074758 | 77 | 194 | 0.0 | 0.0 | 0.00 | 0.00 | 0.00 | 99 | 1011.4 |
| 20260905074254 | 77 | 194 | 0.0 | 0.0 | 0.00 | 0.00 | 0.00 | 99 | 1011.3 |
| 20260905073749 | 77 | 194 | 0.0 | 0.0 | 0.00 | 0.00 | 0.00 | 99 | 1011.3 |
| 20260905073244 | 77 | 194 | 0.0 | 0.0 | 0.00 | 0.00 | 0.00 | 99 | 1011.5 |
| 20260905072744 | 77 | 194 | 0.0 | 0.0 | 0.00 | 0.00 | 0.00 | 99 | 1011.6 |
| 20260905072239 | 77 | 194 | 0.0 | 0.0 | 0.00 | 0.00 | 0.00 | 99 | 1011.7 |
| 20260905071736 | 78 | 191 | 0.0 | 0.0 | 0.00 | 0.00 | 0.00 | 99 | 1011.6 |
| 20260905071232 | 78 | 191 | 0.0 | 0.0 | 0.00 | 0.00 | 0.00 | 99 | 1011.5 |
| 20260905070726 | 77 | 193 | 0.0 | 0.0 | 0.00 | 0.00 | 0.00 | 99 | 1011.6 |
| 20260905070223 | 78 | 194 | 0.0 | 0.0 | 0.00 | 0.00 | 0.00 | 99 | 1011.7 |
| 20260905065721 | 78 | 194 | 0.0 | 0.0 | 0.00 | 0.00 | 0.00 | 99 | 1011.5 |
| 20260905065215 | 78 | 194 | 0.0 | 0.0 | 0.00 | 0.00 | 0.00 | 99 | 1011.8 |
| 20260905064711 | 78 | 194 | 0.0 | 0.0 | 0.00 | 0.00 | 0.00 | 99 | 1011.8 |
| 20260905064207 | 78 | 194 | 0.0 | 0.0 | 0.00 | 0.00 | 0.00 | 99 | 1011.7 |
| 20260905063704 | 78 | 194 | 0.0 | 0.0 | 0.00 | 0.00 | 0.00 | 99 | 1011.5 |
| 20260905063201 | 78 | 194 | 0.0 | 0.0 | 0.00 | 0.00 | 0.00 | 99 | 1011.7 |
| 20260905062657 | 78 | 194 | 0.0 | 0.0 | 0.00 | 0.00 | 0.00 | 99 | 1011.7 |
| 20260905062156 | 78 | 194 | 0.0 | 0.0 | 0.00 | 0.00 | 0.00 | 99 | 1012.0 |
| 20260905061656 | 78 | 194 | 0.0 | 0.0 | 0.00 | 0.00 | 0.00 | 99 | 1011.9 |
| 20260905061150 | 78 | 194 | 0.0 | 0.0 | 0.00 | 0.00 | 0.00 | 99 | 1011.9 |
| 20260905060646 | 79 | 184 | 0.0 | 0.0 | 0.00 | 0.00 | 0.00 | 99 | 1011.9 |
| 20260905060142 | 79 | 184 | 0.0 | 0.0 | 0.00 | 0.00 | 0.00 | 99 | 1011.9 |
| 20260905055641 | 80 | 158 | 0.0 | 1.0 | 0.00 | 0.00 | 0.00 | 99 | 1011.9 |
| 20260905055136 | 79 | 177 | 0.0 | 0.0 | 0.00 | 0.00 | 0.00 | 99 | 1011.9 |
| 20260905054632 | 79 | 183 | 0.0 | 0.0 | 0.00 | 0.00 | 0.00 | 99 | 1012.0 |
| 20260905054127 | 79 | 188 | 0.0 | 0.0 | 0.00 | 0.00 | 0.00 | 99 | 1011.8 |
| 20260905053627 | 79 | 191 | 0.0 | 0.0 | 0.00 | 0.00 | 0.00 | 99 | 1011.9 |
| 20260905053122 | 79 | 191 | 0.0 | 0.0 | 0.00 | 0.00 | 0.00 | 99 | 1012.0 |
| 20260905052621 | 79 | 192 | 0.0 | 0.0 | 0.00 | 0.00 | 0.00 | 99 | 1011.7 |
| 20260905052116 | 80 | 186 | 0.0 | 0.0 | 0.00 | 0.00 | 0.00 | 99 | 1011.9 |
| 20260905051611 | 80 | 185 | 0.0 | 0.0 | 0.00 | 0.00 | 0.00 | 99 | 1011.9 |
| 20260905051108 | 80 | 188 | 0.0 | 0.0 | 0.00 | 0.00 | 0.00 | 99 | 1011.8 |
| 20260905050603 | 80 | 193 | 0.0 | 0.0 | 0.00 | 0.00 | 0.00 | 99 | 1011.8 |
| 20260905050055 | 80 | 193 | 0.0 | 1.0 | 0.00 | 0.00 | 0.00 | 99 | 1011.9 |
| 20260905045554 | 80 | 185 | 0.0 | 0.0 | 0.00 | 0.30 | 0.30 | 99 | 1011.8 |
| 20260905045050 | 80 | 191 | 0.0 | 0.0 | 0.00 | 0.30 | 0.30 | 99 | 1011.7 |
| 20260905044550 | 80 | 191 | 0.0 | 0.0 | 0.00 | 0.30 | 0.30 | 99 | 1011.9 |
| 20260905044044 | 80 | 191 | 0.0 | 0.0 | 0.00 | 0.30 | 0.30 | 99 | 1011.9 |
| 20260905043543 | 80 | 191 | 0.0 | 0.0 | 0.00 | 0.30 | 0.30 | 99 | 1012.0 |
| 20260905043039 | 80 | 190 | 0.0 | 0.0 | 0.00 | 0.30 | 0.30 | 99 | 1011.9 |
| 20260905042538 | 80 | 203 | 0.0 | 0.0 | 0.00 | 0.30 | 0.30 | 99 | 1012.1 |
| 20260905042033 | 80 | 203 | 0.0 | 0.0 | 0.00 | 0.30 | 0.30 | 99 | 1011.9 |
| 20260905041528 | 80 | 204 | 0.0 | 0.0 | 0.00 | 0.30 | 0.30 | 99 | 1011.8 |
| 20260905041024 | 81 | 206 | 0.0 | 1.0 | 0.00 | 0.30 | 0.30 | 99 | 1012.1 |
| 20260905040523 | 81 | 200 | 0.0 | 2.0 | 0.00 | 0.30 | 0.30 | 98 | 1012.3 |
| 20260905040022 | 81 | 192 | 0.0 | 0.0 | 0.00 | 0.30 | 0.30 | 98 | 1012.2 |
| 20260905035517 | 81 | 200 | 0.0 | 0.0 | 0.00 | 0.30 | 0.30 | 98 | 1012.2 |
| 20260905035014 | 81 | 201 | 0.0 | 1.0 | 0.00 | 0.30 | 0.30 | 98 | 1012.1 |
| 20260905034510 | 82 | 190 | 0.0 | 0.0 | 0.00 | 0.30 | 0.30 | 97 | 1012.4 |
| 20260905034009 | 82 | 194 | 1.0 | 2.0 | 0.00 | 0.30 | 0.30 | 96 | 1012.1 |
| 20260905033503 | 82 | 183 | 1.0 | 3.0 | 0.00 | 0.30 | 0.30 | 96 | 1012.3 |
| 20260905032959 | 82 | 179 | 0.0 | 0.0 | 0.00 | 0.30 | 0.30 | 96 | 1012.1 |
| 20260905032454 | 82 | 164 | 0.0 | 1.0 | 0.00 | 0.30 | 0.30 | 96 | 1012.2 |
| 20260905031948 | 82 | 171 | 0.0 | 0.0 | 0.00 | 0.30 | 0.30 | 97 | 1012.3 |
| 20260905031444 | 82 | 191 | 0.0 | 0.0 | 0.00 | 0.30 | 0.30 | 96 | 1012.1 |
| 20260905030939 | 82 | 191 | 0.0 | 0.0 | 0.00 | 0.30 | 0.30 | 95 | 1012.2 |
| 20260905030435 | 83 | 191 | 0.0 | 1.0 | 0.00 | 0.30 | 0.30 | 93 | 1012.1 |
| 20260905025934 | 83 | 173 | 0.0 | 0.0 | 0.00 | 0.30 | 0.30 | 93 | 1012.0 |
| 20260905025429 | 83 | 169 | 0.0 | 0.0 | 0.00 | 0.30 | 0.30 | 93 | 1011.9 |
| 20260905024926 | 83 | 172 | 0.0 | 0.0 | 0.00 | 0.30 | 0.30 | 92 | 1012.1 |
| 20260905024426 | 83 | 165 | 0.0 | 1.0 | 0.00 | 0.30 | 0.30 | 92 | 1012.0 |
| 20260905023921 | 83 | 177 | 1.0 | 2.0 | 0.00 | 0.30 | 0.30 | 92 | 1011.8 |
| 20260905023416 | 83 | 175 | 1.0 | 2.0 | 0.00 | 0.30 | 0.30 | 92 | 1011.8 |
| 20260905022915 | 83 | 171 | 0.0 | 2.0 | 0.00 | 0.30 | 0.30 | 91 | 1011.8 |
| 20260905022410 | 84 | 172 | 0.0 | 1.0 | 0.00 | 0.30 | 0.30 | 91 | 1011.8 |
| 20260905021906 | 84 | 167 | 1.0 | 2.0 | 0.00 | 0.30 | 0.30 | 90 | 1011.7 |
| 20260905021400 | 84 | 161 | 2.0 | 3.0 | 0.00 | 0.30 | 0.30 | 90 | 1011.7 |
| 20260905020856 | 84 | 180 | 1.0 | 2.0 | 0.00 | 0.30 | 0.30 | 89 | 1011.4 |
| 20260905020349 | 84 | 177 | 0.0 | 3.0 | 0.00 | 0.30 | 0.30 | 89 | 1011.4 |
| 20260905015844 | 85 | 152 | 1.0 | 2.0 | 0.00 | 0.30 | 0.30 | 88 | 1011.3 |
| 20260905015342 | 85 | 153 | 1.0 | 2.0 | 0.00 | 0.30 | 0.30 | 88 | 1011.6 |
| 20260905014837 | 85 | 136 | 1.0 | 2.0 | 0.00 | 0.30 | 0.30 | 87 | 1011.2 |
| 20260905014333 | 85 | 173 | 0.0 | 1.0 | 0.00 | 0.30 | 0.30 | 87 | 1011.2 |
| 20260905013828 | 85 | 148 | 1.0 | 3.0 | 0.00 | 0.30 | 0.30 | 86 | 1011.1 |
| 20260905013324 | 85 | 181 | 1.0 | 2.0 | 0.00 | 0.30 | 0.30 | 86 | 1011.1 |
| 20260905012819 | 86 | 179 | 0.0 | 2.0 | 0.00 | 0.30 | 0.30 | 85 | 1010.9 |
| 20260905012315 | 86 | 176 | 0.0 | 2.0 | 0.00 | 0.30 | 0.30 | 85 | 1010.9 |
| 20260905011811 | 86 | 180 | 0.0 | 3.0 | 0.00 | 0.30 | 0.30 | 84 | 1011.0 |
| 20260905011306 | 86 | 167 | 0.0 | 2.0 | 0.00 | 0.30 | 0.30 | 84 | 1010.8 |
| 20260905010801 | 86 | 180 | 0.0 | 2.0 | 0.00 | 0.30 | 0.30 | 83 | 1010.8 |
| 20260905010256 | 87 | 149 | 0.0 | 2.0 | 0.00 | 0.30 | 0.30 | 83 | 1010.8 |
| 20260905005753 | 87 | 171 | 1.0 | 2.0 | 0.00 | 0.30 | 0.30 | 82 | 1010.7 |
| 20260905005253 | 87 | 155 | 1.0 | 5.0 | 0.00 | 0.30 | 0.30 | 82 | 1010.7 |
| 20260905004753 | 87 | 178 | 0.0 | 3.0 | 0.00 | 0.30 | 0.30 | 81 | 1010.8 |
| 20260905004248 | 87 | 177 | 1.0 | 2.0 | 0.00 | 0.30 | 0.30 | 80 | 1010.9 |
| 20260905003742 | 87 | 177 | 1.0 | 9.0 | 0.00 | 0.30 | 0.30 | 79 | 1010.6 |
| 20260905003238 | 88 | 85 | 3.0 | 5.0 | 0.00 | 0.30 | 0.30 | 78 | 1010.7 |
| 20260905002734 | 88 | 171 | 1.0 | 2.0 | 0.00 | 0.30 | 0.30 | 78 | 1010.6 |
| 20260905002234 | 89 | 144 | 2.0 | 3.0 | 0.00 | 0.30 | 0.30 | 77 | 1010.5 |
| 20260905001729 | 89 | 168 | 2.0 | 3.0 | 0.00 | 0.30 | 0.30 | 77 | 1010.3 |
| 20260905001228 | 89 | 170 | 2.0 | 2.0 | 0.00 | 0.30 | 0.30 | 77 | 1010.5 |
| 20260905000723 | 89 | 197 | 2.0 | 7.0 | 0.00 | 0.30 | 0.30 | 77 | 1010.3 |
| 20260905000219 | 90 | 177 | 2.0 | 5.0 | 0.00 | 0.30 | 0.30 | 76 | 1010.2 |
| 20260904235714 | 90 | 193 | 1.0 | 1.0 | 0.00 | 0.30 | 0.30 | 75 | 1010.2 |
| 20260904235209 | 90 | 186 | 2.0 | 7.0 | 0.00 | 0.30 | 0.30 | 75 | 1010.0 |
| 20260904234703 | 90 | 171 | 2.0 | 3.0 | 0.00 | 0.30 | 0.30 | 75 | 1010.2 |
| 20260904234159 | 90 | 168 | 0.0 | 2.0 | 0.00 | 0.30 | 0.30 | 75 | 1010.3 |
| 20260904233654 | 90 | 177 | 2.0 | 7.0 | 0.00 | 0.30 | 0.30 | 75 | 1010.1 |
| 20260904233150 | 91 | 211 | 3.0 | 8.0 | 0.00 | 0.30 | 0.30 | 75 | 1010.2 |
| 20260904232647 | 90 | 174 | 3.0 | 6.0 | 0.00 | 0.30 | 0.30 | 75 | 1010.3 |
| 20260904232143 | 91 | 159 | 3.0 | 3.0 | 0.00 | 0.30 | 0.30 | 75 | 1010.2 |
| 20260904231638 | 90 | 177 | 1.0 | 5.0 | 0.00 | 0.30 | 0.30 | 76 | 1010.2 |
| 20260904231133 | 91 | 155 | 1.0 | 7.0 | 0.00 | 0.30 | 0.30 | 75 | 1010.1 |
| 20260904230632 | 91 | 160 | 2.0 | 3.0 | 0.00 | 0.30 | 0.30 | 73 | 1010.3 |
| 20260904230128 | 92 | 191 | 3.0 | 7.0 | 0.00 | 0.30 | 0.30 | 71 | 1010.0 |
| 20260904225626 | 92 | 120 | 0.0 | 6.0 | 0.00 | 0.30 | 0.30 | 68 | 1010.3 |
| 20260904225120 | 93 | 163 | 1.0 | 2.0 | 0.00 | 0.30 | 0.30 | 68 | 1010.3 |
| 20260904224615 | 94 | 196 | 1.0 | 7.0 | 0.00 | 0.30 | 0.30 | 67 | 1009.9 |
| 20260904224110 | 94 | 198 | 0.0 | 1.0 | 0.00 | 0.30 | 0.30 | 69 | 1010.5 |
| 20260904223609 | 93 | 178 | 2.0 | 3.0 | 0.00 | 0.30 | 0.30 | 67 | 1010.2 |
| 20260904223105 | 94 | 180 | 2.0 | 3.0 | 0.00 | 0.30 | 0.30 | 68 | 1010.3 |
| 20260904222601 | 94 | 166 | 2.0 | 6.0 | 0.00 | 0.30 | 0.30 | 68 | 1010.3 |
| 20260904222055 | 94 | 40 | 1.0 | 5.0 | 0.00 | 0.30 | 0.30 | 69 | 1010.3 |
| 20260904221550 | 93 | 193 | 0.0 | 1.0 | 0.00 | 0.30 | 0.30 | 71 | 1010.1 |
| 20260904221045 | 93 | 125 | 2.0 | 3.0 | 0.00 | 0.30 | 0.30 | 68 | 1010.4 |
| 20260904220544 | 94 | 187 | 1.0 | 3.0 | 0.00 | 0.30 | 0.30 | 67 | 1010.3 |
| 20260904220040 | 93 | 191 | 0.0 | 1.0 | 0.00 | 0.30 | 0.30 | 69 | 1010.3 |
| 20260904215534 | 93 | 164 | 1.0 | 5.0 | 0.00 | 0.30 | 0.30 | 70 | 1010.3 |
| 20260904215030 | 94 | 141 | 1.0 | 3.0 | 0.00 | 0.30 | 0.30 | 69 | 1010.4 |
| 20260904214525 | 94 | 202 | 1.0 | 1.0 | 0.00 | 0.30 | 0.30 | 69 | 1010.5 |
| 20260904214021 | 94 | 202 | 1.0 | 2.0 | 0.00 | 0.30 | 0.30 | 71 | 1010.6 |
| 20260904213518 | 93 | 201 | 0.0 | 3.0 | 0.00 | 0.30 | 0.30 | 71 | 1010.6 |
| 20260904213016 | 93 | 196 | 2.0 | 2.0 | 0.00 | 0.30 | 0.30 | 70 | 1010.6 |
| 20260904212515 | 93 | 186 | 2.0 | 2.0 | 0.00 | 0.30 | 0.30 | 70 | 1010.7 |
| 20260904212010 | 93 | 190 | 2.0 | 5.0 | 0.00 | 0.30 | 0.30 | 71 | 1010.7 |
| 20260904211504 | 93 | 201 | 2.0 | 6.0 | 0.00 | 0.30 | 0.30 | 70 | 1010.7 |
| 20260904211000 | 93 | 220 | 3.0 | 6.0 | 0.00 | 0.30 | 0.30 | 72 | 1010.9 |
| 20260904210459 | 93 | 199 | 0.0 | 0.0 | 0.00 | 0.30 | 0.30 | 73 | 1010.7 |
| 20260904205954 | 93 | 184 | 0.0 | 3.0 | 0.00 | 0.30 | 0.30 | 72 | 1010.7 |
| 20260904205450 | 92 | 186 | 3.0 | 5.0 | 0.00 | 0.30 | 0.30 | 70 | 1010.8 |
| 20260904204947 | 93 | 175 | 0.0 | 5.0 | 0.00 | 0.30 | 0.30 | 72 | 1011.1 |
| 20260904204443 | 94 | 187 | 0.0 | 2.0 | 0.00 | 0.30 | 0.30 | 73 | 1011.0 |
| 20260904203938 | 93 | 209 | 1.0 | 2.0 | 0.00 | 0.30 | 0.30 | 71 | 1011.2 |
| 20260904203435 | 93 | 191 | 0.0 | 2.0 | 0.00 | 0.30 | 0.30 | 74 | 1011.2 |
| 20260904202930 | 92 | 197 | 0.0 | 1.0 | 0.00 | 0.30 | 0.30 | 76 | 1011.3 |
| 20260904202426 | 92 | 216 | 2.0 | 3.0 | 0.00 | 0.30 | 0.30 | 75 | 1011.3 |
| 20260904201922 | 93 | 188 | 0.0 | 2.0 | 0.00 | 0.30 | 0.30 | 73 | 1011.5 |
| 20260904201417 | 92 | 167 | 0.0 | 1.0 | 0.00 | 0.30 | 0.30 | 75 | 1011.6 |
| 20260904200913 | 92 | 162 | 2.0 | 5.0 | 0.00 | 0.30 | 0.30 | 76 | 1011.6 |
| 20260904200411 | 91 | 92 | 1.0 | 2.0 | 0.00 | 0.30 | 0.30 | 75 | 1011.8 |
| 20260904195906 | 92 | 181 | 1.0 | 1.0 | 0.00 | 0.30 | 0.30 | 75 | 1011.6 |
| 20260904195404 | 91 | 161 | 1.0 | 2.0 | 0.00 | 0.30 | 0.30 | 74 | 1011.8 |
| 20260904194859 | 91 | 178 | 2.0 | 2.0 | 0.00 | 0.30 | 0.30 | 75 | 1011.7 |
| 20260904194358 | 91 | 173 | 0.0 | 3.0 | 0.00 | 0.30 | 0.30 | 77 | 1012.0 |
| 20260904193854 | 90 | 173 | 0.0 | 1.0 | 0.00 | 0.30 | 0.30 | 80 | 1011.9 |
| 20260904193349 | 89 | 203 | 1.0 | 1.0 | 0.00 | 0.30 | 0.30 | 81 | 1012.2 |
| 20260904192844 | 88 | 174 | 1.0 | 2.0 | 0.00 | 0.30 | 0.30 | 84 | 1012.1 |
| 20260904192339 | 87 | 185 | 0.0 | 1.0 | 0.00 | 0.30 | 0.30 | 86 | 1012.0 |
| 20260904191836 | 87 | 267 | 1.0 | 3.0 | 0.00 | 0.30 | 0.30 | 88 | 1011.8 |
| 20260904191332 | 84 | 200 | 0.0 | 1.0 | 0.00 | 0.30 | 0.30 | 95 | 1012.2 |
| 20260904190828 | 82 | 48 | 1.0 | 6.0 | 0.00 | 0.30 | 0.30 | 99 | 1012.1 |
| 20260904190324 | 81 | 201 | 0.0 | 1.0 | 0.00 | 0.30 | 0.30 | 99 | 1012.2 |
| 20260904185820 | 80 | 18 | 1.0 | 2.0 | 0.00 | 0.30 | 0.30 | 99 | 1012.2 |
| 20260904185315 | 80 | 167 | 0.0 | 1.0 | 0.00 | 0.30 | 0.30 | 99 | 1012.5 |
| 20260904184815 | 80 | 179 | 0.0 | 0.0 | 0.00 | 0.30 | 0.30 | 99 | 1012.5 |
| 20260904184310 | 80 | 163 | 0.0 | 0.0 | 0.00 | 0.30 | 0.30 | 99 | 1013.1 |
| 20260904183805 | 80 | 204 | 0.0 | 0.0 | 0.00 | 0.30 | 0.30 | 99 | 1013.2 |
| 20260904183300 | 79 | 199 | 0.0 | 0.0 | 0.00 | 0.30 | 0.30 | 99 | 1013.4 |
| 20260904182755 | 78 | 191 | 0.0 | 0.0 | 0.00 | 0.30 | 0.30 | 99 | 1013.5 |
| 20260904182250 | 78 | 190 | 0.0 | 0.0 | 0.00 | 0.30 | 0.30 | 99 | 1013.8 |
| 20260904181746 | 78 | 167 | 0.0 | 0.0 | 0.00 | 0.30 | 0.30 | 99 | 1013.4 |
| 20260904181246 | 78 | 186 | 0.0 | 0.0 | 0.00 | 0.30 | 0.30 | 99 | 1013.4 |
| 20260904180741 | 78 | 172 | 0.0 | 2.0 | 0.00 | 0.30 | 0.30 | 99 | 1013.4 |
| 20260904180236 | 79 | 176 | 0.0 | 0.0 | 0.00 | 0.30 | 0.30 | 99 | 1013.4 |
| 20260904175735 | 79 | 187 | 0.0 | 0.0 | 0.00 | 0.30 | 0.30 | 99 | 1013.3 |
| 20260904175234 | 79 | 190 | 0.0 | 0.0 | 0.00 | 0.30 | 0.30 | 99 | 1013.4 |
| 20260904174729 | 79 | 174 | 0.0 | 1.0 | 0.00 | 0.30 | 0.30 | 99 | 1013.5 |
| 20260904174225 | 79 | 176 | 0.0 | 0.0 | 0.00 | 0.30 | 0.30 | 99 | 1013.3 |
| 20260904173721 | 79 | 172 | 0.0 | 0.0 | 0.00 | 0.30 | 0.30 | 99 | 1013.2 |
| 20260904173221 | 80 | 177 | 0.0 | 0.0 | 0.00 | 0.30 | 0.30 | 99 | 1013.1 |
| 20260904172718 | 79 | 183 | 0.0 | 0.0 | 0.00 | 0.30 | 0.30 | 99 | 1013.4 |
| 20260904172216 | 79 | 173 | 0.0 | 0.0 | 0.00 | 0.30 | 0.30 | 99 | 1013.5 |
| 20260904171712 | 78 | 169 | 0.0 | 0.0 | 0.00 | 0.30 | 0.30 | 99 | 1013.6 |
| 20260904171206 | 78 | 174 | 0.0 | 0.0 | 0.00 | 0.30 | 0.30 | 99 | 1013.6 |
| 20260904170703 | 77 | 174 | 0.0 | 0.0 | 0.00 | 0.30 | 0.30 | 99 | 1013.6 |
| 20260904170159 | 77 | 182 | 0.0 | 0.0 | 0.00 | 0.30 | 0.30 | 99 | 1013.6 |
| 20260904165657 | 76 | 179 | 0.0 | 0.0 | 0.00 | 0.30 | 0.30 | 99 | 1013.5 |
| 20260904165156 | 77 | 167 | 0.0 | 0.0 | 0.00 | 0.30 | 0.30 | 99 | 1013.5 |
| 20260904164652 | 77 | 166 | 0.0 | 0.0 | 0.00 | 0.30 | 0.30 | 99 | 1013.4 |
| 20260904164147 | 77 | 193 | 0.0 | 0.0 | 0.00 | 0.30 | 0.30 | 99 | 1013.5 |
| 20260904163643 | 76 | 196 | 0.0 | 1.0 | 0.00 | 0.30 | 0.30 | 99 | 1013.5 |
| 20260904163138 | 76 | 204 | 0.0 | 5.0 | 0.00 | 0.30 | 0.30 | 99 | 1013.8 |
| 20260904162637 | 77 | 187 | 0.0 | 1.0 | 0.00 | 0.30 | 0.30 | 99 | 1013.4 |
| 20260904162132 | 78 | 163 | 0.0 | 0.0 | 0.00 | 0.30 | 0.30 | 96 | 1013.6 |
| 20260904161627 | 77 | 297 | 7.0 | 18.0 | 0.00 | 0.30 | 0.30 | 94 | 1013.8 |
| 20260904161122 | 77 | 211 | 0.0 | 2.0 | 0.66 | 0.30 | 0.30 | 99 | 1014.0 |
| 20260904160618 | 78 | 249 | 9.0 | 11.0 | 0.54 | 0.28 | 0.28 | 99 | 1013.8 |
| 20260904160114 | 78 | 214 | 0.0 | 2.0 | 0.42 | 0.19 | 0.19 | 99 | 1013.5 |
| 20260904155608 | 78 | 217 | 0.0 | 3.0 | 0.85 | 0.18 | 0.18 | 98 | 1013.3 |
| 20260904155102 | 79 | 239 | 2.0 | 6.0 | 0.54 | 0.09 | 0.09 | 95 | 1013.2 |